Location: Kalberh�ni
(46.4610°N, 7.2453°E)
Time: 08:30:19
(UTC+00:00)

deb Kosmos-2227 - Pass Details

Date: 17 August 2022
Orbit: 774 x 865 km, 70.9° (Epoch: 26 September)

Event Time Altitude Azimuth Distance (km) Brightness Sun altitude
Rises 00:42:35 0° 315° (NW) 3,365 ? -28.2°
Reaches altitude 10° 00:46:22 10° 290° (WNW) 2,447 ? -28.0°
Enters shadow 00:46:45 11° 286° (WNW) 2,386 ? -27.9°
